Weather History for KVWU - November, 2012

Change the Weather History Date:

Thursday, November 1, 2012

  Actual Average (KBDE) Record (KBDE)
Temperature  
Mean Temperature 32 °F -  
Max Temperature 37 °F 47 °F 66 °F (1981)
Min Temperature 28 °F 29 °F 1 °F (1935)
Degree Days  
Heating Degree Days 32    
Moisture  
Dew Point 27 °F    
Average Humidity 84    
Maximum Humidity 100    
Minimum Humidity 70    
Precipitation  
Precipitation 0.00 in - - ()
Sea Level Pressure  
Sea Level Pressure 30.06 in    
Wind  
Wind Speed 10 mph (NNW)    
Max Wind Speed 14 mph    
Max Gust Speed 22 mph    
Visibility 10 miles    
Events Snow    
Averages and records for this station are not official NWS values.
T = Trace of Precipitation, MM = Missing Value Source: NWS Daily Summary

Daily Weather History Graph

Daily Weather History Graph

Search for Another Location

Airport or City:

Trip Planner

Search our weather history database for the weather conditions in past years. The results will help you decide how hot, cold, wet, or windy it might be!

Date:

Astronomy

Nov. 01, 2012 Rise Set
Actual Time 8:04 AM CDT 5:58 PM CDT
Civil Twilight 7:31 AM CDT 6:31 PM CDT
Nautical Twilight 6:54 AM CDT 7:07 PM CDT
Astronomical Twilight 6:18 AM CDT 7:43 PM CDT
Moon 7:46 PM CDT (11/1) 10:47 AM CDT (11/1)
Length of Visible Light 10h 59m
Length of Day
9h 54m
Waning Gibbous, 93% of the Moon is Illuminated
Nov 1
Waning Gibbous
Nov 6
Last Quarter
Nov 13
New
Nov 20
First Quarter
Nov 28
Full

Hourly Weather History & Observations

Time (CDT) Temp. Windchill Dew Point Humidity Pressure Visibility Wind Dir Wind Speed Gust Speed Precip Events Conditions
12:11 AM 37.4 °F 30.3 °F 35.6 °F 93% 29.98 in 10.0 mi NW 10.4 mph 16.1 mph N/A   Overcast
12:31 AM 37.4 °F 30.3 °F 35.6 °F 93% 29.98 in 10.0 mi NW 10.4 mph - N/A   Overcast
12:52 AM 37.4 °F 30.8 °F 35.6 °F 93% 29.98 in 10.0 mi NW 9.2 mph - N/A   Overcast
1:11 AM 37.4 °F 30.8 °F 35.6 °F 93% 29.98 in 5.0 mi NW 9.2 mph - N/A   Drizzle
1:31 AM 35.6 °F 28.6 °F 35.6 °F 100% 29.99 in 10.0 mi NW 9.2 mph - N/A   Overcast
1:52 AM 35.6 °F 28.0 °F 33.8 °F 93% 29.99 in 10.0 mi NW 10.4 mph - N/A   Overcast
2:11 AM 35.6 °F 26.6 °F 33.8 °F 93% 29.99 in 7.0 mi NW 13.8 mph 18.4 mph N/A   Overcast
2:31 AM 35.6 °F 27.5 °F 33.8 °F 93% 29.99 in 10.0 mi NW 11.5 mph 21.9 mph N/A   Overcast
2:52 AM 35.6 °F 27.1 °F 33.8 °F 93% 30.00 in 10.0 mi NW 12.7 mph 19.6 mph N/A   Overcast
3:11 AM 35.6 °F 28.0 °F 32.0 °F 87% 30.00 in 10.0 mi NW 10.4 mph 17.3 mph N/A   Overcast
3:31 AM 33.8 °F 25.3 °F 32.0 °F 93% 30.00 in 7.0 mi NW 11.5 mph - N/A Snow Light Snow
4:11 AM 33.8 °F 24.3 °F 30.2 °F 87% 30.00 in 10.0 mi NW 13.8 mph 18.4 mph N/A   Overcast
4:31 AM 33.8 °F 25.8 °F 30.2 °F 87% 30.00 in 10.0 mi NW 10.4 mph 18.4 mph N/A   Overcast
4:52 AM 33.8 °F 24.8 °F 30.2 °F 87% 30.01 in 10.0 mi NW 12.7 mph 19.6 mph N/A   Overcast
5:11 AM 33.8 °F 24.3 °F 30.2 °F 87% 30.01 in 10.0 mi NW 13.8 mph 18.4 mph N/A   Overcast
5:31 AM 33.8 °F 24.3 °F 28.4 °F 81% 30.01 in 10.0 mi NW 13.8 mph 18.4 mph N/A   Overcast
5:52 AM 32.0 °F 23.0 °F 28.4 °F 87% 30.02 in 10.0 mi NW 11.5 mph 18.4 mph N/A   Overcast
6:11 AM 32.0 °F 23.0 °F 28.4 °F 87% 30.02 in 10.0 mi NW 11.5 mph - N/A   Overcast
6:31 AM 32.0 °F 23.0 °F 28.4 °F 87% 30.03 in 10.0 mi NW 11.5 mph 17.3 mph N/A   Overcast
6:51 AM 32.0 °F 22.1 °F 28.4 °F 87% 30.03 in 10.0 mi NW 13.8 mph 17.3 mph N/A   Overcast
7:31 AM 30.2 °F 20.2 °F 26.6 °F 86% 30.04 in 10.0 mi WNW 12.7 mph 17.3 mph N/A   Overcast
7:51 AM 30.2 °F 20.2 °F 26.6 °F 86% 30.04 in 10.0 mi WNW 12.7 mph 19.6 mph N/A   Overcast
8:11 AM 30.2 °F 20.2 °F 26.6 °F 86% 30.05 in 10.0 mi WNW 12.7 mph 17.3 mph N/A   Overcast
8:31 AM 30.2 °F 19.8 °F 26.6 °F 86% 30.05 in 10.0 mi NW 13.8 mph 18.4 mph N/A   Overcast
8:51 AM 30.2 °F 21.3 °F 24.8 °F 80% 30.06 in 10.0 mi NW 10.4 mph 17.3 mph N/A   Overcast
9:11 AM 30.2 °F 21.3 °F 26.6 °F 86% 30.05 in 10.0 mi NW 10.4 mph - N/A   Overcast
9:31 AM 30.2 °F 21.3 °F 24.8 °F 80% 30.05 in 10.0 mi WNW 10.4 mph - N/A   Overcast
9:51 AM 30.2 °F 21.9 °F 24.8 °F 80% 30.06 in 10.0 mi NW 9.2 mph 16.1 mph N/A   Overcast
10:11 AM 30.2 °F 21.3 °F 24.8 °F 80% 30.06 in 10.0 mi NW 10.4 mph 17.3 mph N/A   Overcast
10:31 AM 32.0 °F 23.0 °F 24.8 °F 75% 30.06 in 10.0 mi WNW 11.5 mph 17.3 mph N/A   Overcast
10:51 AM 32.0 °F 24.2 °F 24.8 °F 75% 30.06 in 10.0 mi NW 9.2 mph - N/A   Overcast
11:11 AM 32.0 °F 23.6 °F 24.8 °F 75% 30.06 in 10.0 mi NW 10.4 mph 17.3 mph N/A   Overcast
11:31 AM 32.0 °F 22.5 °F 24.8 °F 75% 30.06 in 10.0 mi NW 12.7 mph - N/A   Overcast
12:11 PM 33.8 °F 24.8 °F 24.8 °F 70% 30.07 in 10.0 mi NNW 12.7 mph 17.3 mph N/A   Overcast
12:32 PM 32.0 °F 23.6 °F 24.8 °F 75% 30.07 in 10.0 mi NW 10.4 mph 16.1 mph N/A   Overcast
12:51 PM 32.0 °F 22.5 °F 24.8 °F 75% 30.07 in 10.0 mi NW 12.7 mph 18.4 mph N/A   Overcast
1:11 PM 32.0 °F 23.6 °F 24.8 °F 75% 30.06 in 10.0 mi NNW 10.4 mph 17.3 mph N/A   Overcast
1:32 PM 32.0 °F 23.6 °F 24.8 °F 75% 30.06 in 10.0 mi NW 10.4 mph - N/A   Overcast
1:51 PM 32.0 °F 24.2 °F 24.8 °F 75% 30.06 in 10.0 mi NNW 9.2 mph 16.1 mph N/A   Overcast
2:11 PM 32.0 °F 25.6 °F 24.8 °F 75% 30.06 in 10.0 mi NW 6.9 mph - N/A   Overcast
2:31 PM 32.0 °F 23.6 °F 24.8 °F 75% 30.06 in 10.0 mi NW 10.4 mph - N/A   Overcast
2:51 PM 32.0 °F 25.6 °F 24.8 °F 75% 30.06 in 10.0 mi NNW 6.9 mph - N/A   Overcast
3:11 PM 32.0 °F 24.2 °F 24.8 °F 75% 30.06 in 10.0 mi NW 9.2 mph - N/A   Overcast
3:31 PM 30.2 °F 21.9 °F 24.8 °F 80% 30.06 in 10.0 mi NNW 9.2 mph - N/A   Overcast
3:51 PM 30.2 °F 22.6 °F 24.8 °F 80% 30.07 in 10.0 mi NW 8.1 mph - N/A   Overcast
4:11 PM 30.2 °F 25.4 °F 24.8 °F 80% 30.08 in 10.0 mi NNW 4.6 mph - N/A   Overcast
4:31 PM 30.2 °F 22.6 °F 24.8 °F 80% 30.09 in 10.0 mi NW 8.1 mph - N/A   Overcast
4:51 PM 30.2 °F 22.6 °F 24.8 °F 80% 30.09 in 10.0 mi NW 8.1 mph - N/A   Overcast
5:11 PM 30.2 °F 22.6 °F 24.8 °F 80% 30.09 in 10.0 mi NW 8.1 mph - N/A   Overcast
5:31 PM 30.2 °F 21.9 °F 24.8 °F 80% 30.09 in 10.0 mi NNW 9.2 mph - N/A   Overcast
5:51 PM 28.4 °F 21.2 °F 24.8 °F 86% 30.08 in 10.0 mi North 6.9 mph - N/A   Overcast
6:11 PM 28.4 °F 22.2 °F 24.8 °F 86% 30.09 in 10.0 mi North 5.8 mph - N/A   Overcast
6:31 PM 28.4 °F 22.2 °F 24.8 °F 86% 30.09 in 10.0 mi North 5.8 mph - N/A   Overcast
6:51 PM 28.4 °F 20.4 °F 24.8 °F 86% 30.09 in 10.0 mi North 8.1 mph - N/A   Overcast
7:11 PM 28.4 °F 20.4 °F 24.8 °F 86% 30.11 in 10.0 mi North 8.1 mph - N/A   Overcast
7:31 PM 28.4 °F 20.4 °F 24.8 °F 86% 30.11 in 10.0 mi North 8.1 mph - N/A   Overcast
7:51 PM 28.4 °F 21.2 °F 24.8 °F 86% 30.11 in 10.0 mi North 6.9 mph - N/A   Overcast
8:11 PM 28.4 °F 20.4 °F 24.8 °F 86% 30.11 in 10.0 mi North 8.1 mph - N/A   Overcast
8:31 PM 28.4 °F 20.4 °F 24.8 °F 86% 30.11 in 10.0 mi North 8.1 mph - N/A   Overcast
8:51 PM 28.4 °F 23.3 °F 24.8 °F 86% 30.11 in 10.0 mi NNW 4.6 mph - N/A   Overcast
9:11 PM 28.4 °F 19.7 °F 24.8 °F 86% 30.11 in 10.0 mi NNE 9.2 mph - N/A   Overcast
9:31 PM 28.4 °F 22.2 °F 24.8 °F 86% 30.11 in 10.0 mi NNE 5.8 mph - N/A   Overcast
9:51 PM 30.2 °F 22.6 °F 24.8 °F 80% 30.11 in 10.0 mi North 8.1 mph - N/A   Overcast
10:12 PM 30.2 °F 22.6 °F 24.8 °F 80% 30.11 in 10.0 mi North 8.1 mph - N/A   Overcast
10:31 PM 28.4 °F 21.2 °F 24.8 °F 86% 30.11 in 10.0 mi NNE 6.9 mph - N/A   Overcast
10:51 PM 28.4 °F 21.2 °F 24.8 °F 86% 30.12 in 10.0 mi North 6.9 mph - N/A   Overcast
11:11 PM 28.4 °F 22.2 °F 24.8 °F 86% 30.12 in 10.0 mi NNE 5.8 mph - N/A   Overcast
11:31 PM 28.4 °F 22.2 °F 24.8 °F 86% 30.11 in 10.0 mi NNE 5.8 mph - N/A   Overcast
11:51 PM 28.4 °F 21.2 °F 24.8 °F 86% 30.11 in 10.0 mi NE 6.9 mph - N/A   Overcast